Shreveport, LA

10:03 AM CST on February 27, 2017 (GMT -0600)
Shreveport Regional

Weather History for KSHV - December, 2012

Change the Weather History Date:

Sunday, December 23, 2012

  Actual Average Record
Temperature  
Mean Temperature 62 °F 47 °F  
Max Temperature 70 °F 57 °F 81 °F (2015)
Min Temperature 54 °F 37 °F 5 °F (1989)
Degree Days  
Heating Degree Days 3 18  
Month to date heating degree days 200 381  
Since 1 July heating degree days 560 752  
Cooling Degree Days 0 0  
Month to date cooling degree days 20 0  
Year to date cooling degree days 2954 2474  
Growing Degree Days 12 (Base 50)    
Moisture  
Dew Point 54 °F    
Average Humidity 75    
Maximum Humidity 84    
Minimum Humidity 66    
Precipitation  
Precipitation T in 0.16 in 4.64 in (1891)
Month to date precipitation 1.39 3.66  
Year to date precipitation 47.41 50.30  
Snow  
Snow 0.00 in - - ()
Month to date snowfall 0.0  
Since 1 July snowfall 0.0  
Snow Depth 0.00 in    
Sea Level Pressure  
Sea Level Pressure 29.94 in    
Wind  
Wind Speed 9 mph (South)    
Max Wind Speed 23 mph    
Max Gust Speed 28 mph    
Visibility 10 miles    
Events Rain    
T = Trace of Precipitation, MM = Missing Value Source: NWS Daily Summary

Daily Weather History Graph

Daily Weather History Graph

Search for Another Location

Airport or City:

Trip Planner

Search our weather history database for the weather conditions in past years. The results will help you decide how hot, cold, wet, or windy it might be!

Date:

Astronomy

Dec. 23, 2012 Rise Set
Actual Time 7:14 AM CST 5:15 PM CST
Civil Twilight 6:46 AM CST 5:42 PM CST
Nautical Twilight 6:16 AM CST 6:13 PM CST
Astronomical Twilight 5:46 AM CST 6:43 PM CST
Moon 2:00 PM CST (12/23) 3:04 AM CST (12/23)
Length of Visible Light 10h 55m
Length of Day
10h 01m
Waxing Gibbous, 82% of the Moon is Illuminated
Dec 23
Waxing Gibbous
Dec 28
Full
Jan 4
Last Quarter
Jan 11
New
Jan 18
First Quarter

Hourly Weather History & Observations

Time (CST) Temp. Dew Point Humidity Pressure Visibility Wind Dir Wind Speed Gust Speed Precip Events Conditions
12:56 AM 55.0 °F 45.0 °F 69% 30.10 in 10.0 mi South 8.1 mph - N/A   Mostly Cloudy
1:56 AM 55.0 °F 46.0 °F 72% 30.09 in 10.0 mi SSE 8.1 mph - N/A   Overcast
2:56 AM 55.9 °F 46.9 °F 72% 30.06 in 10.0 mi South 8.1 mph - N/A   Overcast
3:56 AM 57.0 °F 48.9 °F 74% 30.04 in 10.0 mi South 9.2 mph - N/A   Overcast
4:56 AM 55.9 °F 48.9 °F 77% 30.04 in 10.0 mi SSE 6.9 mph - N/A   Overcast
5:56 AM 57.0 °F 48.9 °F 74% 30.03 in 10.0 mi SSE 9.2 mph - N/A   Overcast
6:56 AM 57.0 °F 50.0 °F 77% 30.04 in 10.0 mi SSE 8.1 mph - N/A   Overcast
7:11 AM 57.2 °F 51.8 °F 82% 30.04 in 10.0 mi SSE 6.9 mph - N/A   Overcast
7:56 AM 57.9 °F 51.1 °F 78% 30.02 in 10.0 mi SSE 5.8 mph - 0.00 in   Overcast
8:20 AM 57.2 °F 51.8 °F 82% 30.02 in 10.0 mi South 11.5 mph - N/A   Mostly Cloudy
8:56 AM 59.0 °F 53.1 °F 81% 30.01 in 10.0 mi South 11.5 mph - 0.00 in Rain Light Rain
9:56 AM 63.0 °F 55.0 °F 75% 30.01 in 10.0 mi South 11.5 mph - 0.00 in   Mostly Cloudy
10:23 AM 64.4 °F 55.4 °F 73% 30.01 in 10.0 mi South 10.4 mph 19.6 mph N/A   Overcast
10:56 AM 66.9 °F 57.0 °F 70% 29.99 in 10.0 mi SSW 10.4 mph - N/A   Mostly Cloudy
11:56 AM 68.0 °F 57.9 °F 70% 29.94 in 10.0 mi South 15.0 mph 23.0 mph N/A   Mostly Cloudy
12:03 PM 68.0 °F 57.2 °F 68% 29.94 in 10.0 mi SSW 12.7 mph 23.0 mph N/A   Overcast
12:56 PM 68.0 °F 57.9 °F 70% 29.88 in 10.0 mi South 13.8 mph - N/A   Overcast
1:04 PM 68.0 °F 57.2 °F 68% 29.89 in 10.0 mi South 15.0 mph - N/A   Overcast
1:56 PM 69.1 °F 59.0 °F 70% 29.86 in 10.0 mi South 12.7 mph - N/A   Overcast
2:56 PM 70.0 °F 59.0 °F 68% 29.84 in 10.0 mi SSW 13.8 mph - N/A   Overcast
3:56 PM 70.0 °F 60.1 °F 71% 29.82 in 10.0 mi South 5.8 mph - N/A   Overcast
4:56 PM 66.9 °F 59.0 °F 76% 29.82 in 10.0 mi South 5.8 mph - N/A   Overcast
5:56 PM 66.0 °F 57.9 °F 75% 29.82 in 10.0 mi South 5.8 mph - N/A   Overcast
6:56 PM 66.9 °F 57.0 °F 70% 29.83 in 10.0 mi SSW 8.1 mph - N/A   Overcast
7:56 PM 66.9 °F 57.0 °F 70% 29.85 in 10.0 mi SW 8.1 mph - N/A   Overcast
8:56 PM 64.9 °F 57.0 °F 75% 29.83 in 10.0 mi South 8.1 mph - N/A   Overcast
9:56 PM 63.0 °F 57.0 °F 81% 29.84 in 10.0 mi SW 5.8 mph - N/A   Overcast
10:56 PM 62.1 °F 57.9 °F 86% 29.86 in 10.0 mi West 4.6 mph - N/A   Overcast
11:56 PM 59.0 °F 53.1 °F 81% 29.86 in 10.0 mi West 6.9 mph - N/A   Mostly Cloudy